Location: Cheadle
(51.0146°N, 113.5417°W)
Time: 02:14:18
(UTC+00:00)

MOZHAYETS 4 - Pass Details

Date: 15 December 2023
Orbit: 654 x 672 km, 98.3° (Epoch: 23 February)

Event Time Altitude Azimuth Distance (km) Brightness Sun altitude
Rises 00:20:35 0° 10° (N) 3,040 10.7 -7.9°
Reaches altitude 10° 00:22:53 10° 4° (N) 2,121 10.0 -8.2°
Maximum altitude 00:27:18 45° 292° (WNW) 920 8.8 -8.8°
Drops below altitude 10° 00:31:40 10° 221° (SW) 2,102 11.5 -9.4°
Sets 00:33:57 0° 215° (SW) 3,009 12.2 -9.7°
